| time (UTC) | temp C | wind direction | speed KPH | gust KPH | rain 1hr cm | rain 24hr cm | rain mn cm | humidity % | barometer mb |
| 20260507074503 | 21 | 172 | 6.4 | 14.5 | 0.00 | 0.00 | 0.00 | 100 | 1010.4 |
| 20260507073109 | 20 | 125 | 9.7 | 20.9 | 0.00 | 0.00 | 0.00 | 100 | 1010.3 |
| 20260507071554 | 20 | 112 | 9.7 | 17.7 | 0.00 | 0.00 | 0.00 | 100 | 1010.3 |
| 20260507070104 | 19 | 140 | 8.0 | 19.3 | 0.00 | 0.00 | 0.00 | 100 | 1010.4 |
| 20260507064550 | 18 | 132 | 8.0 | 14.5 | 0.00 | 0.00 | 0.00 | 100 | 1010.3 |
| 20260507063052 | 17 | 115 | 8.0 | 17.7 | 0.00 | 0.00 | 0.00 | 100 | 1010.4 |
| 20260507061541 | 17 | 144 | 4.8 | 16.1 | 0.00 | 0.00 | 0.00 | 100 | 1010.4 |
| 20260507060044 | 16 | 171 | 4.8 | 14.5 | 0.00 | 0.00 | 0.00 | 100 | 1010.4 |
| 20260507054539 | 16 | 140 | 9.7 | 16.1 | 0.00 | 0.00 | 0.00 | 100 | 1010.5 |
| 20260507053030 | 15 | 150 | 4.8 | 12.9 | 0.00 | 0.00 | 0.00 | 100 | 1010.4 |
| 20260507051528 | 15 | 122 | 8.0 | 14.5 | 0.00 | 0.00 | 0.00 | 100 | 1010.5 |
| 20260507050046 | 14 | 119 | 6.4 | 14.5 | 0.00 | 0.00 | 0.00 | 100 | 1010.4 |
| 20260507044522 | 13 | 360 | 6.4 | 12.9 | 0.00 | 0.00 | 0.00 | 100 | 1010.4 |
| 20260507043013 | 13 | 360 | 6.4 | 14.5 | 0.00 | 0.00 | 0.00 | 100 | 1010.3 |
| 20260507041511 | 12 | 360 | 6.4 | 12.9 | 0.00 | 0.00 | 0.00 | 100 | 1010.3 |
| 20260507040004 | 12 | 360 | 6.4 | 9.7 | 0.00 | 0.00 | 0.00 | 100 | 1010.3 |
| 20260507034607 | 11 | 360 | 3.2 | 8.0 | 0.00 | 0.00 | 0.00 | 100 | 1010.1 |
| 20260507033058 | 11 | 360 | 3.2 | 6.4 | 0.00 | 0.00 | 0.00 | 100 | 1010.1 |
| 20260507031555 | 11 | 360 | 3.2 | 6.4 | 0.00 | 0.00 | 0.00 | 100 | 1010.1 |
| 20260507030051 | 11 | 360 | 3.2 | 6.4 | 0.00 | 0.00 | 0.00 | 100 | 1010.0 |
| 20260507024549 | 11 | 360 | 3.2 | 6.4 | 0.00 | 0.00 | 0.00 | 100 | 1009.9 |
| 20260507023045 | 11 | 360 | 4.8 | 9.7 | 0.00 | 0.00 | 0.00 | 100 | 1009.8 |
| 20260507021555 | 11 | 360 | 3.2 | 8.0 | 0.00 | 0.00 | 0.00 | 100 | 1009.8 |
| 20260507020043 | 11 | 360 | 3.2 | 8.0 | 0.00 | 0.00 | 0.00 | 100 | 1009.7 |
| 20260507014540 | 11 | 360 | 3.2 | 6.4 | 0.00 | 0.00 | 0.00 | 100 | 1009.7 |
| 20260507013038 | 12 | 360 | 3.2 | 6.4 | 0.00 | 0.00 | 0.00 | 100 | 1009.6 |
| 20260507011539 | 12 | 360 | 3.2 | 6.4 | 0.00 | 0.00 | 0.00 | 100 | 1009.5 |
| 20260507010042 | 12 | 360 | 3.2 | 8.0 | 0.00 | 0.00 | 0.00 | 100 | 1009.4 |
| 20260507004534 | 12 | 360 | 3.2 | 8.0 | 0.00 | 0.00 | 0.00 | 100 | 1009.5 |
| 20260507003032 | 12 | 360 | 3.2 | 6.4 | 0.00 | 0.00 | 0.00 | 100 | 1009.4 |
| 20260507001534 | 12 | 360 | 1.6 | 4.8 | 0.00 | 0.00 | 0.00 | 100 | 1009.3 |
| 20260507000034 | 12 | 360 | 1.6 | 4.8 | 0.00 | 0.00 | 0.00 | 100 | 1009.2 |
| 20260506234529 | 12 | 360 | 0.0 | 3.2 | 0.00 | 0.00 | 0.00 | 100 | 1009.2 |
| 20260506233027 | 12 | 360 | 1.6 | 4.8 | 0.00 | 0.00 | 0.00 | 100 | 1009.2 |
| 20260506231528 | 12 | 360 | 0.0 | 1.6 | 0.00 | 0.00 | 0.00 | 100 | 1009.2 |
| 20260506230024 | 12 | 360 | 1.6 | 3.2 | 0.00 | 0.00 | 0.00 | 100 | 1008.9 |
| 20260506224521 | 13 | 360 | 0.0 | 1.6 | 0.00 | 0.00 | 0.00 | 100 | 1008.9 |
| 20260506223018 | 13 | 360 | 0.0 | 3.2 | 0.00 | 0.00 | 0.00 | 100 | 1008.8 |
| 20260506221516 | 13 | 360 | 3.2 | 6.4 | 0.00 | 0.00 | 0.00 | 100 | 1008.7 |
| 20260506220023 | 13 | 360 | 0.0 | 3.2 | 0.00 | 0.00 | 0.00 | 100 | 1008.6 |
| 20260506214511 | 14 | 360 | 0.0 | 1.6 | 0.00 | 0.00 | 0.00 | 100 | 1008.6 |
| 20260506213006 | 15 | 360 | 0.0 | 3.2 | 0.00 | 0.00 | 0.00 | 100 | 1008.5 |
| 20260506211502 | 16 | 360 | 3.2 | 8.0 | 0.00 | 0.00 | 0.00 | 100 | 1008.3 |
| 20260506204602 | 17 | 360 | 3.2 | 8.0 | 0.00 | 0.00 | 0.00 | 100 | 1008.2 |
| 20260506203058 | 17 | 360 | 4.8 | 9.7 | 0.00 | 0.00 | 0.00 | 100 | 1008.0 |
| 20260506201558 | 17 | 360 | 4.8 | 9.7 | 0.00 | 0.00 | 0.00 | 100 | 1007.9 |
| 20260506200112 | 18 | 360 | 4.8 | 8.0 | 0.00 | 0.00 | 0.00 | 100 | 1007.9 |
| 20260506194614 | 19 | 360 | 4.8 | 14.5 | 0.00 | 0.00 | 0.00 | 100 | 1007.9 |
| 20260506193055 | 20 | 360 | 6.4 | 14.5 | 0.00 | 0.00 | 0.00 | 100 | 1007.9 |
| 20260506191554 | 20 | 360 | 6.4 | 14.5 | 0.00 | 0.00 | 0.00 | 100 | 1007.8 |
| 20260506190054 | 20 | 360 | 8.0 | 17.7 | 0.00 | 0.00 | 0.00 | 100 | 1007.7 |
| 20260506184559 | 20 | 360 | 4.8 | 14.5 | 0.00 | 0.00 | 0.00 | 100 | 1007.5 |
| 20260506183102 | 21 | 360 | 6.4 | 12.9 | 0.00 | 0.00 | 0.00 | 100 | 1007.4 |
| 20260506181559 | 21 | 360 | 8.0 | 16.1 | 0.00 | 0.00 | 0.00 | 100 | 1007.3 |
| 20260506180052 | 21 | 360 | 4.8 | 12.9 | 0.00 | 0.00 | 0.00 | 99 | 1007.2 |
| 20260506174551 | 22 | 360 | 4.8 | 9.7 | 0.00 | 0.00 | 0.00 | 96 | 1006.9 |
| 20260506173055 | 22 | 360 | 3.2 | 11.3 | 0.00 | 0.00 | 0.00 | 94 | 1006.7 |
| 20260506171550 | 23 | 133 | 4.8 | 14.5 | 0.00 | 0.00 | 0.00 | 93 | 1006.5 |
| 20260506170050 | 24 | 144 | 6.4 | 16.1 | 0.00 | 0.00 | 0.00 | 92 | 1006.5 |
| 20260506164552 | 25 | 161 | 6.4 | 19.3 | 0.00 | 0.00 | 0.00 | 92 | 1006.5 |
| 20260506163051 | 25 | 185 | 6.4 | 19.3 | 0.00 | 0.00 | 0.00 | 91 | 1006.5 |
| 20260506161556 | 25 | 178 | 11.3 | 19.3 | 0.00 | 0.00 | 0.00 | 90 | 1006.4 |
| 20260506160047 | 26 | 194 | 8.0 | 20.9 | 0.00 | 0.00 | 0.00 | 89 | 1006.4 |
| 20260506154546 | 26 | 161 | 6.4 | 24.1 | 0.00 | 0.00 | 0.00 | 89 | 1006.5 |
| 20260506153044 | 26 | 167 | 6.4 | 25.7 | 0.00 | 0.00 | 0.00 | 90 | 1006.4 |
| 20260506151600 | 27 | 125 | 11.3 | 19.3 | 0.00 | 0.00 | 0.00 | 89 | 1006.5 |
| 20260506150043 | 27 | 180 | 9.7 | 27.4 | 0.00 | 0.00 | 0.00 | 88 | 1006.5 |
| 20260506144542 | 27 | 121 | 6.4 | 20.9 | 0.00 | 0.00 | 0.00 | 89 | 1006.7 |
| 20260506143144 | 27 | 174 | 6.4 | 22.5 | 0.00 | 0.00 | 0.00 | 89 | 1006.7 |
| 20260506141540 | 27 | 175 | 9.7 | 19.3 | 0.00 | 0.00 | 0.00 | 87 | 1006.6 |
| 20260506140040 | 27 | 163 | 8.0 | 19.3 | 0.00 | 0.00 | 0.00 | 87 | 1006.5 |
| 20260506134538 | 28 | 213 | 9.7 | 16.1 | 0.00 | 0.00 | 0.00 | 87 | 1007.1 |
| 20260506133040 | 28 | 211 | 6.4 | 17.7 | 0.00 | 0.00 | 0.00 | 88 | 1006.9 |
| 20260506131536 | 27 | 189 | 4.8 | 25.7 | 0.00 | 0.00 | 0.00 | 87 | 1007.0 |
| 20260506130033 | 27 | 161 | 11.3 | 19.3 | 0.00 | 0.00 | 0.00 | 87 | 1007.2 |
| 20260506124531 | 27 | 203 | 4.8 | 17.7 | 0.00 | 0.00 | 0.00 | 86 | 1007.2 |
| 20260506123028 | 27 | 185 | 9.7 | 27.4 | 0.00 | 0.00 | 0.00 | 87 | 1007.3 |
| 20260506121527 | 27 | 132 | 8.0 | 25.7 | 0.00 | 0.00 | 0.00 | 88 | 1007.3 |
| 20260506120025 | 27 | 124 | 9.7 | 20.9 | 0.00 | 0.00 | 0.00 | 88 | 1007.6 |
| 20260506114532 | 27 | 173 | 9.7 | 22.5 | 0.00 | 0.00 | 0.00 | 90 | 1007.7 |
| 20260506113020 | 27 | 205 | 9.7 | 17.7 | 0.00 | 0.00 | 0.00 | 88 | 1007.8 |
| 20260506111515 | 27 | 207 | 8.0 | 17.7 | 0.00 | 0.00 | 0.00 | 91 | 1008.0 |
| 20260506110012 | 27 | 217 | 9.7 | 19.3 | 0.00 | 0.00 | 0.00 | 89 | 1008.1 |
| 20260506104509 | 27 | 225 | 8.0 | 19.3 | 0.00 | 0.00 | 0.00 | 92 | 1008.3 |
| 20260506103013 | 26 | 206 | 6.4 | 14.5 | 0.00 | 0.00 | 0.00 | 93 | 1008.5 |
| 20260506101503 | 26 | 228 | 8.0 | 16.1 | 0.00 | 0.00 | 0.00 | 94 | 1008.5 |
| 20260506100101 | 26 | 203 | 6.4 | 16.1 | 0.00 | 0.00 | 0.00 | 92 | 1008.5 |
| 20260506094600 | 26 | 225 | 6.4 | 12.9 | 0.00 | 0.00 | 0.00 | 93 | 1008.6 |
| 20260506093102 | 25 | 94 | 8.0 | 17.7 | 0.00 | 0.00 | 0.00 | 94 | 1008.7 |
| 20260506091553 | 25 | 188 | 4.8 | 14.5 | 0.00 | 0.00 | 0.00 | 96 | 1008.9 |
| 20260506090049 | 25 | 134 | 4.8 | 14.5 | 0.00 | 0.00 | 0.00 | 98 | 1008.9 |
| 20260506084549 | 24 | 203 | 1.6 | 12.9 | 0.00 | 0.00 | 0.00 | 100 | 1008.9 |
| 20260506083042 | 23 | 216 | 3.2 | 12.9 | 0.00 | 0.00 | 0.00 | 100 | 1009.0 |
| 20260506081537 | 23 | 196 | 3.2 | 9.7 | 0.00 | 0.00 | 0.00 | 100 | 1009.1 |